TimeEST,TemperatureF,Dew PointF,Humidity,Sea Level PressureIn,VisibilityMPH,Wind Direction,Wind SpeedMPH,Gust SpeedMPH,PrecipitationIn,Events,Conditions,WindDirDegrees,DateUTC
12:53 AM,46.0,44.1,93,30.25,4.0,NE,3.5,-,0.08,Rain,Rain,40,2013-11-16 05:53:00
1:53 AM,44.1,43.0,96,30.23,6.0,Calm,Calm,-,0.03,,Overcast,0,2013-11-16 06:53:00
2:28 AM,44.1,43.0,96,30.23,1.5,Calm,Calm,-,0.01,,Overcast,0,2013-11-16 07:28:00
2:38 AM,45.0,44.1,97,30.24,0.8,Calm,Calm,-,0.01,,Overcast,0,2013-11-16 07:38:00
2:46 AM,44.1,44.1,100,30.24,1.5,West,3.5,-,0.01,,Overcast,260,2013-11-16 07:46:00
2:51 AM,44.6,42.8,93,30.24,3.0,West,3.5,-,0.01,,Overcast,270,2013-11-16 07:51:00
2:53 AM,45.0,43.0,93,30.24,3.0,West,3.5,-,0.01,,Overcast,260,2013-11-16 07:53:00
3:06 AM,44.1,43.0,96,30.24,2.0,West,3.5,-,N/A,,Overcast,280,2013-11-16 08:06:00
3:16 AM,44.1,43.0,96,30.23,1.0,NNW,3.5,-,N/A,,Overcast,330,2013-11-16 08:16:00
3:20 AM,44.1,43.0,96,30.23,0.5,NW,3.5,-,N/A,Fog,Fog,320,2013-11-16 08:20:00
3:37 AM,44.1,43.0,96,30.23,1.0,NNW,3.5,-,N/A,,Overcast,330,2013-11-16 08:37:00
3:45 AM,44.1,43.0,96,30.23,2.5,Calm,Calm,-,N/A,,Overcast,0,2013-11-16 08:45:00
3:53 AM,44.1,43.0,96,30.24,5.0,NNW,4.6,-,N/A,,Overcast,330,2013-11-16 08:53:00
4:02 AM,44.1,43.0,96,30.23,5.0,Calm,Calm,-,N/A,,Overcast,0,2013-11-16 09:02:00
4:12 AM,44.1,43.0,96,30.24,3.0,North,3.5,-,N/A,,Overcast,350,2013-11-16 09:12:00
4:14 AM,44.1,43.0,96,30.24,1.8,Calm,Calm,-,N/A,,Overcast,0,2013-11-16 09:14:00
4:24 AM,44.1,43.0,96,30.24,3.0,Calm,Calm,-,N/A,,Overcast,0,2013-11-16 09:24:00
4:53 AM,43.0,42.1,97,30.23,4.0,Calm,Calm,-,N/A,,Scattered Clouds,0,2013-11-16 09:53:00
5:05 AM,43.0,42.1,97,30.24,1.8,Calm,Calm,-,N/A,,Partly Cloudy,0,2013-11-16 10:05:00
5:24 AM,43.0,42.1,97,30.24,0.5,Calm,Calm,-,N/A,Fog,Fog,0,2013-11-16 10:24:00
5:36 AM,41.0,39.9,96,30.24,0.2,Calm,Calm,-,N/A,Fog,Fog,0,2013-11-16 10:36:00
5:53 AM,43.0,42.1,97,30.25,0.5,Calm,Calm,-,N/A,Fog,Fog,0,2013-11-16 10:53:00
6:00 AM,43.0,42.1,97,30.25,0.8,Calm,Calm,-,N/A,,Scattered Clouds,0,2013-11-16 11:00:00
6:19 AM,41.0,41.0,100,30.26,1.0,Calm,Calm,-,N/A,,Mostly Cloudy,0,2013-11-16 11:19:00
6:27 AM,41.0,41.0,100,30.26,0.8,Calm,Calm,-,N/A,,Overcast,0,2013-11-16 11:27:00
6:35 AM,39.9,39.9,100,30.26,1.0,Calm,Calm,-,N/A,,Overcast,0,2013-11-16 11:35:00
6:53 AM,42.1,41.0,96,30.27,1.8,Calm,Calm,-,N/A,,Overcast,0,2013-11-16 11:53:00
7:09 AM,42.1,39.9,92,30.27,0.5,Calm,Calm,-,N/A,Fog,Fog,0,2013-11-16 12:09:00
7:22 AM,42.1,41.0,96,30.27,0.2,Calm,Calm,-,N/A,Fog,Fog,0,2013-11-16 12:22:00
7:33 AM,39.9,39.9,100,30.28,0.2,Calm,Calm,-,N/A,Fog,Fog,0,2013-11-16 12:33:00
7:53 AM,42.1,41.0,96,30.29,0.2,Calm,Calm,-,N/A,Fog,Fog,0,2013-11-16 12:53:00
8:53 AM,43.0,43.0,100,30.31,0.2,Calm,Calm,-,N/A,Fog,Fog,0,2013-11-16 13:53:00
9:08 AM,44.1,43.0,96,30.31,1.0,Calm,Calm,-,N/A,,Overcast,0,2013-11-16 14:08:00
9:23 AM,46.0,45.0,96,30.31,3.0,Calm,Calm,-,N/A,,Overcast,0,2013-11-16 14:23:00
9:53 AM,46.9,45.0,93,30.30,6.0,Calm,Calm,-,N/A,,Overcast,0,2013-11-16 14:53:00
10:53 AM,51.1,46.0,83,30.30,8.0,Calm,Calm,-,N/A,,Overcast,0,2013-11-16 15:53:00
11:08 AM,51.1,46.9,86,30.29,8.0,ENE,3.5,-,N/A,,Overcast,60,2013-11-16 16:08:00
11:28 AM,51.1,46.9,86,30.29,7.0,Calm,Calm,-,N/A,,Overcast,0,2013-11-16 16:28:00
11:53 AM,52.0,46.9,83,30.28,8.0,Calm,Calm,-,N/A,,Overcast,0,2013-11-16 16:53:00
12:53 PM,52.0,48.0,86,30.28,8.0,SW,4.6,-,N/A,,Overcast,220,2013-11-16 17:53:00
1:34 PM,53.1,48.0,83,30.26,9.0,Calm,Calm,-,N/A,,Overcast,0,2013-11-16 18:34:00
1:53 PM,53.1,48.0,83,30.26,10.0,Calm,Calm,-,N/A,,Overcast,0,2013-11-16 18:53:00
2:05 PM,53.1,48.0,83,30.25,10.0,SSW,3.5,-,N/A,,Overcast,200,2013-11-16 19:05:00
2:38 PM,54.0,48.0,80,30.25,10.0,Calm,Calm,-,N/A,,Overcast,0,2013-11-16 19:38:00
2:53 PM,55.0,48.0,77,30.24,10.0,Calm,Calm,-,N/A,,Overcast,0,2013-11-16 19:53:00
3:53 PM,54.0,48.0,80,30.25,10.0,Calm,Calm,-,N/A,,Overcast,0,2013-11-16 20:53:00
4:06 PM,54.0,48.0,80,30.25,10.0,Calm,Calm,-,N/A,,Overcast,0,2013-11-16 21:06:00
4:53 PM,54.0,48.9,83,30.25,10.0,Calm,Calm,-,N/A,,Overcast,0,2013-11-16 21:53:00
5:53 PM,52.0,50.0,93,30.25,6.0,SSW,3.5,-,N/A,,Overcast,210,2013-11-16 22:53:00
6:13 PM,52.0,50.0,93,30.26,2.5,SSW,3.5,-,N/A,,Overcast,200,2013-11-16 23:13:00
6:46 PM,51.1,51.1,100,30.26,1.8,Calm,Calm,-,N/A,,Overcast,0,2013-11-16 23:46:00
6:53 PM,51.1,51.1,100,30.26,1.8,Calm,Calm,-,N/A,,Overcast,0,2013-11-16 23:53:00
7:53 PM,51.1,51.1,100,30.25,1.0,Calm,Calm,-,N/A,,Overcast,0,2013-11-17 00:53:00
8:53 PM,52.0,50.0,93,30.26,0.8,Calm,Calm,-,0.00,,Overcast,0,2013-11-17 01:53:00
9:06 PM,51.1,50.0,96,30.26,0.8,Calm,Calm,-,N/A,,Mist,0,2013-11-17 02:06:00
9:25 PM,51.1,50.0,96,30.25,1.0,North,3.5,-,0.01,,Mist,10,2013-11-17 02:25:00
9:38 PM,51.1,51.1,100,30.25,0.8,Calm,Calm,-,0.01,,Mist,0,2013-11-17 02:38:00
9:45 PM,51.1,51.1,100,30.25,1.0,Calm,Calm,-,0.01,,Mist,0,2013-11-17 02:45:00
9:53 PM,51.1,51.1,100,30.25,1.2,Calm,Calm,-,0.01,,Overcast,0,2013-11-17 02:53:00
10:44 PM,51.1,50.0,96,30.24,0.8,Calm,Calm,-,0.00,Rain,Light Rain,0,2013-11-17 03:44:00
10:53 PM,51.1,51.1,100,30.24,0.8,Calm,Calm,-,0.00,,Mist,0,2013-11-17 03:53:00
11:53 PM,51.1,50.0,96,30.23,0.5,Calm,Calm,-,N/A,Fog,Fog,0,2013-11-17 04:53:00